When you browse on this site, cookies collect data to enhance your experience and personalize the content and advertising you see.
Visit our Privacy Policy to learn more. By continuing to use the site, you agree to this use of cookies and data.
  • In Sweden
  • List of Countries
  • For 7 days
  • Water Temperature
  • Satellite Maps
  • Weather Map
  • Weather Widgets
  • user-avatar
    Login

    Hourly Weather Bang Sai

    Today, 19 July, Friday

    Time Temperature Precipitation Wind Pressure Humidity
    00:00 +30°C° 1 mm 3 mps 753 mmHg 75%
    01:00 +29°C° 0 mm 1 mps 753 mmHg 77%
    02:00 +29°C° 0 mm 2 mps 753 mmHg 78%
    03:00 +29°C° 0 mm 2 mps 752 mmHg 78%
    04:00 +28°C° 0 mm 2 mps 752 mmHg 78%
    05:00 +29°C° 0 mm 2 mps 752 mmHg 78%
    06:00 +29°C° 0 mm 2 mps 753 mmHg 77%
    07:00 +29°C° 0 mm 2 mps 753 mmHg 77%
    08:00 +31°C° 0 mm 2 mps 753 mmHg 70%
    09:00 +32°C° 0 mm 2 mps 754 mmHg 62%
    10:00 +35°C° 0 mm 3 mps 754 mmHg 55%
    11:00 +36°C° 0 mm 3 mps 753 mmHg 52%
    12:00 +37°C° 0 mm 3 mps 753 mmHg 48%
    13:00 +38°C° 0 mm 3 mps 752 mmHg 45%
    14:00 +38°C° 0 mm 3 mps 752 mmHg 46%
    15:00 +38°C° 0 mm 2 mps 751 mmHg 46%
    16:00 +38°C° 0 mm 2 mps 750 mmHg 47%
    17:00 +36°C° 0.5 mm 3 mps 751 mmHg 54%
    18:00 +34°C° 0.5 mm 3 mps 751 mmHg 61%
    19:00 +33°C° 0.5 mm 4 mps 752 mmHg 68%
    20:00 +32°C° 0.4 mm 4 mps 753 mmHg 71%
    21:00 +32°C° 0.4 mm 4 mps 753 mmHg 73%
    22:00 +30°C° 0.4 mm 3 mps 754 mmHg 76%
    23:00 +30°C° 0.7 mm 3 mps 754 mmHg 78%

    Tomorrow, 20 July, Saturday

    Time Temperature Precipitation Wind Pressure Humidity
    00:00 +29°C° 0.7 mm 3 mps 754 mmHg 79%
    01:00 +28°C° 0.7 mm 3 mps 753 mmHg 81%
    02:00 +28°C° 0.3 mm 3 mps 753 mmHg 81%
    03:00 +28°C° 0.3 mm 3 mps 753 mmHg 81%
    04:00 +28°C° 0.3 mm 2 mps 753 mmHg 81%
    05:00 +28°C° 0 mm 2 mps 753 mmHg 81%
    06:00 +28°C° 0 mm 2 mps 753 mmHg 80%
    07:00 +29°C° 0 mm 2 mps 754 mmHg 80%
    08:00 +30°C° 0 mm 3 mps 754 mmHg 72%
    09:00 +33°C° 0 mm 3 mps 754 mmHg 65%
    10:00 +35°C° 0 mm 3 mps 755 mmHg 58%
    11:00 +36°C° 0 mm 3 mps 754 mmHg 54%
    12:00 +37°C° 0 mm 3 mps 753 mmHg 51%
    13:00 +38°C° 0 mm 3 mps 753 mmHg 48%
    14:00 +38°C° 0 mm 3 mps 752 mmHg 48%
    15:00 +38°C° 0 mm 3 mps 752 mmHg 49%
    16:00 +38°C° 0 mm 4 mps 751 mmHg 49%
    17:00 +36°C° 0.1 mm 4 mps 751 mmHg 54%
    18:00 +35°C° 0.1 mm 4 mps 752 mmHg 60%
    19:00 +33°C° 0.1 mm 4 mps 752 mmHg 65%
    20:00 +33°C° 0.1 mm 4 mps 753 mmHg 68%
    21:00 +32°C° 0.1 mm 4 mps 754 mmHg 70%
    22:00 +32°C° 0.1 mm 4 mps 754 mmHg 73%
    23:00 +31°C° 0 mm 3 mps 754 mmHg 75%

    Day after tomorrow, 21 July, Sunday

    Time Temperature Precipitation Wind Pressure Humidity
    00:00 +30°C° 0 mm 3 mps 754 mmHg 77%
    01:00 +30°C° 0 mm 3 mps 754 mmHg 78%
    02:00 +30°C° 0 mm 3 mps 754 mmHg 78%
    03:00 +29°C° 0 mm 2 mps 753 mmHg 78%
    04:00 +29°C° 0 mm 2 mps 753 mmHg 78%
    05:00 +29°C° 0 mm 2 mps 753 mmHg 78%
    06:00 +29°C° 0 mm 2 mps 754 mmHg 77%
    07:00 +29°C° 0 mm 3 mps 754 mmHg 76%
    08:00 +31°C° 0 mm 3 mps 754 mmHg 71%
    09:00 +33°C° 0 mm 4 mps 755 mmHg 66%
    10:00 +34°C° 0 mm 4 mps 755 mmHg 61%
    11:00 +35°C° 0.8 mm 5 mps 755 mmHg 60%
    12:00 +35°C° 0.8 mm 5 mps 754 mmHg 60%
    13:00 +35°C° 0.8 mm 6 mps 754 mmHg 60%
    14:00 +34°C° 0.3 mm 6 mps 753 mmHg 62%
    15:00 +34°C° 0.3 mm 6 mps 753 mmHg 64%
    16:00 +33°C° 0.3 mm 6 mps 752 mmHg 66%
    17:00 +32°C° 0 mm 5 mps 753 mmHg 69%
    18:00 +30°C° 0 mm 5 mps 753 mmHg 71%
    19:00 +30°C° 0 mm 4 mps 753 mmHg 74%
    20:00 +30°C° 0 mm 4 mps 754 mmHg 73%
    21:00 +30°C° 0 mm 4 mps 755 mmHg 73%
    22:00 +30°C° 0 mm 3 mps 755 mmHg 72%
    23:00 +30°C° 0 mm 3 mps 755 mmHg 72%

    22 July, Monday

    Time Temperature Precipitation Wind Pressure Humidity
    00:00 +29°C° 0 mm 3 mps 755 mmHg 73%
    01:00 +29°C° 0 mm 3 mps 754 mmHg 73%
    02:00 +29°C° 0 mm 3 mps 754 mmHg 73%
    03:00 +29°C° 0 mm 2 mps 754 mmHg 74%
    04:00 +29°C° 0 mm 2 mps 754 mmHg 74%
    05:00 +29°C° 0 mm 2 mps 754 mmHg 75%
    06:00 +29°C° 0 mm 2 mps 755 mmHg 75%
    07:00 +29°C° 0 mm 2 mps 755 mmHg 75%
    08:00 +29°C° 0 mm 2 mps 755 mmHg 72%
    09:00 +30°C° 0 mm 1 mps 756 mmHg 69%
    10:00 +31°C° 0 mm 1 mps 756 mmHg 66%
    11:00 +31°C° 0 mm 2 mps 755 mmHg 65%
    12:00 +33°C° 0 mm 3 mps 755 mmHg 64%
    13:00 +33°C° 0 mm 3 mps 755 mmHg 62%
    14:00 +34°C° 0.1 mm 3 mps 754 mmHg 61%
    15:00 +34°C° 0.1 mm 3 mps 754 mmHg 59%
    16:00 +35°C° 0.1 mm 2 mps 753 mmHg 57%
    17:00 +34°C° 0.1 mm 2 mps 753 mmHg 61%
    18:00 +32°C° 0.1 mm 2 mps 753 mmHg 66%
    19:00 +31°C° 0.1 mm 2 mps 754 mmHg 70%
    20:00 +30°C° 0 mm 2 mps 754 mmHg 71%
    21:00 +30°C° 0 mm 2 mps 755 mmHg 72%
    22:00 +30°C° 0 mm 1 mps 756 mmHg 73%
    23:00 +30°C° 0 mm 1 mps 756 mmHg 73%

    23 July, Tuesday

    Time Temperature Precipitation Wind Pressure Humidity
    00:00 +29°C° 0 mm 2 mps 755 mmHg 73%
    01:00 +29°C° 0 mm 2 mps 755 mmHg 73%
    02:00 +29°C° 0 mm 1 mps 755 mmHg 73%
    03:00 +29°C° 0 mm 1 mps 754 mmHg 74%
    04:00 +28°C° 0 mm 1 mps 754 mmHg 75%
    05:00 +28°C° 0 mm 1 mps 754 mmHg 76%
    06:00 +28°C° 0 mm 2 mps 755 mmHg 77%
    07:00 +29°C° 0 mm 2 mps 755 mmHg 78%
    08:00 +30°C° 0 mm 2 mps 755 mmHg 71%
    09:00 +32°C° 0 mm 2 mps 756 mmHg 64%
    10:00 +34°C° 0 mm 2 mps 756 mmHg 57%
    11:00 +35°C° 0 mm 3 mps 755 mmHg 54%
    12:00 +36°C° 0 mm 3 mps 755 mmHg 50%
    13:00 +37°C° 0 mm 4 mps 754 mmHg 47%
    14:00 +37°C° 0 mm 3 mps 754 mmHg 47%
    15:00 +37°C° 0 mm 3 mps 753 mmHg 48%
    16:00 +37°C° 0 mm 2 mps 753 mmHg 49%
    17:00 +36°C° 0 mm 2 mps 753 mmHg 52%
    18:00 +35°C° 0 mm 3 mps 753 mmHg 55%
    19:00 +34°C° 0 mm 3 mps 754 mmHg 58%
    20:00 +33°C° 0.1 mm 3 mps 754 mmHg 62%
    21:00 +31°C° 0.1 mm 2 mps 755 mmHg 66%
    22:00 +30°C° 0.1 mm 2 mps 756 mmHg 70%
    23:00 +30°C° 0 mm 2 mps 756 mmHg 72%

    24 July, Wednesday

    Time Temperature Precipitation Wind Pressure Humidity
    00:00 +30°C° 0 mm 2 mps 755 mmHg 73%
    01:00 +30°C° 0 mm 2 mps 755 mmHg 75%
    02:00 +29°C° 0 mm 2 mps 755 mmHg 74%
    03:00 +29°C° 0 mm 2 mps 755 mmHg 73%
    04:00 +29°C° 0 mm 2 mps 754 mmHg 71%
    05:00 +29°C° 0 mm 2 mps 755 mmHg 71%
    06:00 +29°C° 0 mm 1 mps 755 mmHg 72%
    07:00 +29°C° 0 mm 1 mps 755 mmHg 72%
    08:00 +30°C° 0 mm 2 mps 756 mmHg 67%
    09:00 +31°C° 0 mm 2 mps 756 mmHg 63%
    10:00 +32°C° 0 mm 2 mps 756 mmHg 59%
    11:00 +32°C° 0 mm 2 mps 756 mmHg 57%
    12:00 +33°C° 0 mm 1 mps 755 mmHg 54%
    13:00 +33°C° 0 mm 1 mps 755 mmHg 52%
    14:00 +33°C° 0 mm 1 mps 754 mmHg 54%
    15:00 +33°C° 0 mm 1 mps 754 mmHg 56%
    16:00 +32°C° 0 mm 2 mps 753 mmHg 58%
    17:00 +32°C° 0 mm 1 mps 754 mmHg 60%
    18:00 +31°C° 0 mm 1 mps 754 mmHg 63%
    19:00 +30°C° 0 mm 1 mps 754 mmHg 65%
    20:00 +30°C° 0 mm 1 mps 755 mmHg 66%
    21:00 +30°C° 0 mm 1 mps 755 mmHg 66%
    22:00 +30°C° 0 mm 2 mps 756 mmHg 66%
    23:00 +30°C° 0.1 mm 1 mps 756 mmHg 67%
    Show more